Tracking 29528 objects as of 12-Sep-2024
HD Live streaming from Space Station
objects crossing your sky now

FLOCK 4Q 5

Track FLOCK 4Q 5 now!
10-day predictions
FLOCK 4Q 5 is classified as:


NORAD ID: 58325
Int'l Code: 2023-174BX
Perigee: 469.3 km
Apogee: 483.9 km
Inclination: 97.4 °
Period: 94.0 minutes
Semi major axis: 6847 km
RCS: Unknown
Launch date: November 11, 2023
Source: United States (US)
Launch site: AIR FORCE WESTERN TEST RANGE (AFWTR)
Your satellite tracking list
Your tracking list is empty




NASA's NSSDC Master Catalog

Two Line Element Set (TLE):
1 58325U 23174BX  24255.75663549  .00076180  00000-0  24329-2 0  9997
2 58325  97.4487 330.9879 0010602 265.5788  94.4243 15.32126454 46967
Source of the keplerian elements: AFSPC